Time,TemperatureF,DewpointF,PressureIn,WindDirection,WindDirectionDegrees,WindSpeedMPH,WindSpeedGustMPH,Humidity,HourlyPrecipIn,Conditions,Clouds,dailyrainin,SoftwareType,DateUTC
2013-06-23 00:05:00,64.6,61.0,29.85,SSE,168,2.0,8.0,87,0.00,,,0.00,weatherlink.com 1.10,2013-06-23 07:05:00,
2013-06-23 00:20:00,64.6,60.0,29.84,SSE,159,6.0,9.0,86,0.00,,,0.00,weatherlink.com 1.10,2013-06-23 07:20:00,
2013-06-23 00:35:00,64.6,61.0,29.84,SE,143,6.0,11.0,87,0.00,,,0.00,weatherlink.com 1.10,2013-06-23 07:35:00,
2013-06-23 00:50:00,64.4,60.0,29.83,SSE,150,7.0,10.0,86,0.00,,,0.00,weatherlink.com 1.10,2013-06-23 07:50:00,
2013-06-23 01:05:00,64.3,60.0,29.83,SSE,155,5.0,10.0,87,0.00,,,0.00,weatherlink.com 1.10,2013-06-23 08:05:00,
2013-06-23 01:20:00,64.3,60.0,29.83,ESE,117,4.0,11.0,87,0.00,,,0.00,weatherlink.com 1.10,2013-06-23 08:20:00,
2013-06-23 01:35:00,64.1,60.0,29.83,SSE,160,5.0,11.0,87,0.00,,,0.00,weatherlink.com 1.10,2013-06-23 08:35:00,
2013-06-23 01:50:00,64.2,60.0,29.83,SSE,165,7.0,12.0,87,0.00,,,0.00,weatherlink.com 1.10,2013-06-23 08:50:00,
2013-06-23 02:05:00,64.3,61.0,29.83,SSE,155,6.0,9.0,88,0.00,,,0.00,weatherlink.com 1.10,2013-06-23 09:05:00,
2013-06-23 02:20:00,64.1,60.0,29.83,SSE,161,6.0,11.0,87,0.00,,,0.00,weatherlink.com 1.10,2013-06-23 09:20:00,
2013-06-23 02:35:00,64.1,60.0,29.82,SE,139,3.0,9.0,87,0.00,,,0.00,weatherlink.com 1.10,2013-06-23 09:35:00,
2013-06-23 02:51:00,63.9,60.0,29.82,SE,142,2.0,10.0,87,0.00,,,0.00,weatherlink.com 1.10,2013-06-23 09:51:00,
2013-06-23 03:06:00,64.0,60.0,29.82,SSE,162,5.0,9.0,87,0.00,,,0.00,weatherlink.com 1.10,2013-06-23 10:06:00,
2013-06-23 03:21:00,64.1,60.0,29.82,SSE,151,9.0,11.0,87,0.00,,,0.00,weatherlink.com 1.10,2013-06-23 10:21:00,
2013-06-23 03:36:00,64.2,60.0,29.81,SSE,148,2.0,10.0,87,0.00,,,0.00,weatherlink.com 1.10,2013-06-23 10:36:00,
2013-06-23 03:51:00,64.4,61.0,29.81,SSE,150,6.0,11.0,87,0.00,,,0.00,weatherlink.com 1.10,2013-06-23 10:51:00,
2013-06-23 04:06:00,64.5,60.0,29.81,SE,143,5.0,9.0,86,0.00,,,0.00,weatherlink.com 1.10,2013-06-23 11:06:00,
2013-06-23 04:21:00,64.4,60.0,29.81,SE,134,7.0,12.0,86,0.00,,,0.00,weatherlink.com 1.10,2013-06-23 11:21:00,
2013-06-23 04:36:00,64.3,60.0,29.81,SE,128,5.0,14.0,85,0.00,,,0.00,weatherlink.com 1.10,2013-06-23 11:36:00,
2013-06-23 04:51:00,64.1,60.0,29.82,ESE,123,9.0,12.0,85,0.00,,,0.00,weatherlink.com 1.10,2013-06-23 11:51:00,
2013-06-23 05:06:00,64.0,60.0,29.82,ESE,119,7.0,12.0,85,0.00,,,0.00,weatherlink.com 1.10,2013-06-23 12:06:00,
2013-06-23 05:21:00,64.0,60.0,29.82,SSE,149,5.0,13.0,85,0.00,,,0.00,weatherlink.com 1.10,2013-06-23 12:21:00,
2013-06-23 05:36:00,64.2,60.0,29.82,SE,129,5.0,12.0,87,0.00,,,0.00,weatherlink.com 1.10,2013-06-23 12:36:00,
2013-06-23 05:51:00,63.8,60.0,29.82,SE,126,9.0,12.0,87,0.00,,,0.00,weatherlink.com 1.10,2013-06-23 12:51:00,
2013-06-23 06:06:00,63.7,60.0,29.82,SE,134,6.0,12.0,87,0.00,,,0.00,weatherlink.com 1.10,2013-06-23 13:06:00,
2013-06-23 06:21:00,63.8,60.0,29.83,SE,131,9.0,14.0,87,0.00,,,0.00,weatherlink.com 1.10,2013-06-23 13:21:00,
2013-06-23 06:36:00,63.5,60.0,29.82,SE,126,4.0,10.0,87,0.00,,,0.00,weatherlink.com 1.10,2013-06-23 13:36:00,
2013-06-23 06:51:00,63.7,60.0,29.83,SSE,165,8.0,11.0,87,0.00,,,0.00,weatherlink.com 1.10,2013-06-23 13:51:00,
2013-06-23 07:06:00,63.9,60.0,29.83,SE,142,3.0,13.0,86,0.00,,,0.00,weatherlink.com 1.10,2013-06-23 14:06:00,
2013-06-23 07:21:00,64.1,60.0,29.84,SE,138,6.0,13.0,86,0.00,,,0.00,weatherlink.com 1.10,2013-06-23 14:21:00,
2013-06-23 07:36:00,63.9,59.0,29.85,SSE,150,6.0,11.0,85,0.00,,,0.00,weatherlink.com 1.10,2013-06-23 14:36:00,
2013-06-23 07:51:00,64.2,60.0,29.85,SE,133,4.0,12.0,85,0.00,,,0.00,weatherlink.com 1.10,2013-06-23 14:51:00,
2013-06-23 08:06:00,64.2,59.0,29.85,SSE,148,6.0,11.0,84,0.00,,,0.00,weatherlink.com 1.10,2013-06-23 15:06:00,
2013-06-23 08:21:00,64.6,59.0,29.85,SE,139,9.0,9.0,83,0.00,,,0.00,weatherlink.com 1.10,2013-06-23 15:21:00,
2013-06-23 08:36:00,64.9,59.0,29.84,ESE,123,4.0,13.0,82,0.00,,,0.00,weatherlink.com 1.10,2013-06-23 15:36:00,
2013-06-23 08:51:00,65.2,60.0,29.84,SE,126,10.0,13.0,82,0.00,,,0.00,weatherlink.com 1.10,2013-06-23 15:51:00,
2013-06-23 09:06:00,65.0,59.0,29.85,SE,130,4.0,13.0,82,0.00,,,0.00,weatherlink.com 1.10,2013-06-23 16:06:00,
2013-06-23 09:21:00,65.0,59.0,29.85,ESE,123,8.0,12.0,80,0.00,,,0.00,weatherlink.com 1.10,2013-06-23 16:21:00,
2013-06-23 09:36:00,65.8,59.0,29.84,SE,130,8.0,11.0,79,0.00,,,0.00,weatherlink.com 1.10,2013-06-23 16:36:00,
2013-06-23 09:51:00,66.3,59.0,29.84,SE,128,6.0,11.0,78,0.00,,,0.00,weatherlink.com 1.10,2013-06-23 16:51:00,
2013-06-23 10:06:00,66.5,59.0,29.84,SE,130,8.0,12.0,77,0.00,,,0.00,weatherlink.com 1.10,2013-06-23 17:06:00,
2013-06-23 10:21:00,66.8,59.0,29.85,SE,135,5.0,11.0,76,0.00,,,0.00,weatherlink.com 1.10,2013-06-23 17:21:00,
2013-06-23 10:36:00,66.8,59.0,29.85,ESE,119,5.0,10.0,77,0.00,,,0.00,weatherlink.com 1.10,2013-06-23 17:36:00,
2013-06-23 10:51:00,67.3,60.0,29.85,SE,139,7.0,11.0,77,0.00,,,0.00,weatherlink.com 1.10,2013-06-23 17:51:00,
2013-06-23 11:06:00,67.9,60.0,29.85,SSE,151,7.0,10.0,75,0.00,,,0.00,weatherlink.com 1.10,2013-06-23 18:06:00,
2013-06-23 11:21:00,68.3,60.0,29.86,SE,140,3.0,9.0,75,0.00,,,0.00,weatherlink.com 1.10,2013-06-23 18:21:00,
2013-06-23 11:36:00,68.8,61.0,29.85,SE,131,7.0,12.0,75,0.00,,,0.00,weatherlink.com 1.10,2013-06-23 18:36:00,
2013-06-23 11:51:00,68.9,60.0,29.86,SSE,150,11.0,11.0,74,0.00,,,0.00,weatherlink.com 1.10,2013-06-23 18:51:00,
2013-06-23 12:06:00,68.9,60.0,29.85,South,169,3.0,12.0,74,0.00,,,0.00,weatherlink.com 1.10,2013-06-23 19:06:00,
2013-06-23 12:21:00,70.7,61.0,29.85,South,186,10.0,10.0,72,0.00,,,0.00,weatherlink.com 1.10,2013-06-23 19:21:00,
2013-06-23 12:36:00,70.3,62.0,29.84,SSW,205,7.0,9.0,74,0.00,,,0.00,weatherlink.com 1.10,2013-06-23 19:36:00,
2013-06-23 12:51:00,70.6,63.0,29.84,SW,217,7.0,12.0,76,0.00,,,0.00,weatherlink.com 1.10,2013-06-23 19:51:00,
2013-06-23 13:06:00,69.7,62.0,29.84,SW,234,7.0,11.0,76,0.00,,,0.00,weatherlink.com 1.10,2013-06-23 20:06:00,
2013-06-23 13:21:00,69.6,61.0,29.84,SW,228,5.0,12.0,75,0.00,,,0.00,weatherlink.com 1.10,2013-06-23 20:21:00,
2013-06-23 13:36:00,69.9,62.0,29.83,SSW,196,6.0,9.0,75,0.00,,,0.00,weatherlink.com 1.10,2013-06-23 20:36:00,
2013-06-23 13:51:00,70.0,62.0,29.83,SW,219,4.0,10.0,75,0.00,,,0.00,weatherlink.com 1.10,2013-06-23 20:51:00,
2013-06-23 14:06:00,70.2,62.0,29.83,SSW,213,7.0,10.0,74,0.00,,,0.00,weatherlink.com 1.10,2013-06-23 21:06:00,
2013-06-23 14:21:00,70.2,62.0,29.82,SW,222,6.0,10.0,74,0.00,,,0.00,weatherlink.com 1.10,2013-06-23 21:21:00,
2013-06-23 14:36:00,69.5,61.0,29.82,SW,214,9.0,12.0,74,0.00,,,0.00,weatherlink.com 1.10,2013-06-23 21:36:00,
2013-06-23 14:51:00,69.3,61.0,29.82,SW,219,5.0,12.0,75,0.00,,,0.00,weatherlink.com 1.10,2013-06-23 21:51:00,
2013-06-23 15:06:00,68.7,61.0,29.82,SW,220,6.0,10.0,76,0.00,,,0.00,weatherlink.com 1.10,2013-06-23 22:06:00,
2013-06-23 15:21:00,69.2,61.0,29.81,SSW,200,6.0,8.0,75,0.00,,,0.00,weatherlink.com 1.10,2013-06-23 22:21:00,
2013-06-23 15:36:00,68.9,61.0,29.81,South,186,6.0,9.0,76,0.00,,,0.00,weatherlink.com 1.10,2013-06-23 22:36:00,
2013-06-23 15:52:00,69.4,61.0,29.80,SW,215,7.0,8.0,74,0.00,,,0.00,weatherlink.com 1.10,2013-06-23 22:52:00,
2013-06-23 16:07:00,69.8,62.0,29.80,SSW,211,6.0,8.0,75,0.00,,,0.00,weatherlink.com 1.10,2013-06-23 23:07:00,
2013-06-23 16:22:00,69.3,61.0,29.80,SSW,197,5.0,9.0,74,0.00,,,0.00,weatherlink.com 1.10,2013-06-23 23:22:00,
2013-06-23 16:37:00,69.2,61.0,29.80,SSW,198,4.0,8.0,74,0.00,,,0.00,weatherlink.com 1.10,2013-06-23 23:37:00,
2013-06-23 16:52:00,68.8,61.0,29.79,SW,216,7.0,9.0,75,0.00,,,0.00,weatherlink.com 1.10,2013-06-23 23:52:00,
2013-06-23 17:07:00,69.0,61.0,29.79,SSW,200,7.0,9.0,76,0.00,,,0.00,weatherlink.com 1.10,2013-06-24 00:07:00,
2013-06-23 17:22:00,69.0,61.0,29.79,SW,223,3.0,9.0,76,0.00,,,0.00,weatherlink.com 1.10,2013-06-24 00:22:00,
2013-06-23 17:37:00,68.5,61.0,29.79,SW,219,7.0,9.0,77,0.00,,,0.00,weatherlink.com 1.10,2013-06-24 00:37:00,
2013-06-23 17:52:00,68.4,61.0,29.78,SSW,205,6.0,11.0,76,0.00,,,0.00,weatherlink.com 1.10,2013-06-24 00:52:00,
2013-06-23 18:07:00,67.9,60.0,29.78,SW,217,4.0,8.0,77,0.00,,,0.00,weatherlink.com 1.10,2013-06-24 01:07:00,
2013-06-23 18:22:00,67.2,61.0,29.78,SSW,209,7.0,8.0,79,0.00,,,0.00,weatherlink.com 1.10,2013-06-24 01:22:00,
2013-06-23 18:37:00,67.1,61.0,29.79,SSW,194,7.0,7.0,80,0.00,,,0.00,weatherlink.com 1.10,2013-06-24 01:37:00,
2013-06-23 18:52:00,67.3,61.0,29.78,SSW,212,3.0,7.0,79,0.00,,,0.00,weatherlink.com 1.10,2013-06-24 01:52:00,
2013-06-23 19:07:00,66.8,60.0,29.78,SSW,213,4.0,7.0,80,0.00,,,0.00,weatherlink.com 1.10,2013-06-24 02:07:00,
2013-06-23 19:22:00,66.5,61.0,29.79,SSW,213,4.0,6.0,81,0.00,,,0.00,weatherlink.com 1.10,2013-06-24 02:22:00,
2013-06-23 19:37:00,66.1,60.0,29.78,SSW,213,1.0,6.0,81,0.00,,,0.00,weatherlink.com 1.10,2013-06-24 02:37:00,
2013-06-23 19:52:00,65.9,60.0,29.78,WSW,244,2.0,7.0,82,0.00,,,0.00,weatherlink.com 1.10,2013-06-24 02:52:00,
2013-06-23 20:07:00,65.7,60.0,29.78,WSW,250,4.0,8.0,82,0.00,,,0.00,weatherlink.com 1.10,2013-06-24 03:07:00,
2013-06-23 20:22:00,65.5,60.0,29.79,West,259,5.0,7.0,82,0.00,,,0.00,weatherlink.com 1.10,2013-06-24 03:22:00,
2013-06-23 20:37:00,65.5,60.0,29.79,WSW,256,3.0,7.0,82,0.00,,,0.00,weatherlink.com 1.10,2013-06-24 03:37:00,
2013-06-23 20:52:00,65.3,60.0,29.79,WSW,255,2.0,5.0,83,0.00,,,0.00,weatherlink.com 1.10,2013-06-24 03:52:00,
2013-06-23 21:07:00,65.4,61.0,29.79,WSW,255,4.0,5.0,85,0.00,,,0.00,weatherlink.com 1.10,2013-06-24 04:07:00,
2013-06-23 21:22:00,65.5,61.0,29.79,WSW,253,3.0,7.0,86,0.00,,,0.00,weatherlink.com 1.10,2013-06-24 04:22:00,
2013-06-23 21:37:00,65.6,62.0,29.80,WSW,253,7.0,7.0,87,0.00,,,0.00,weatherlink.com 1.10,2013-06-24 04:37:00,
2013-06-23 21:52:00,65.5,62.0,29.80,WSW,240,6.0,9.0,87,0.00,,,0.00,weatherlink.com 1.10,2013-06-24 04:52:00,
2013-06-23 22:07:00,65.5,62.0,29.81,WSW,250,4.0,8.0,87,0.00,,,0.00,weatherlink.com 1.10,2013-06-24 05:07:00,
2013-06-23 22:22:00,65.6,61.0,29.82,WSW,245,4.0,10.0,86,0.00,,,0.00,weatherlink.com 1.10,2013-06-24 05:22:00,
2013-06-23 22:37:00,65.6,61.0,29.81,WSW,244,8.0,9.0,86,0.00,,,0.00,weatherlink.com 1.10,2013-06-24 05:37:00,
2013-06-23 22:52:00,65.5,62.0,29.81,WSW,237,5.0,7.0,87,0.00,,,0.00,weatherlink.com 1.10,2013-06-24 05:52:00,
2013-06-23 23:22:00,65.0,61.0,29.81,WSW,238,4.0,8.0,87,0.00,,,0.00,weatherlink.com 1.10,2013-06-24 06:22:00,
2013-06-23 23:37:00,64.9,61.0,29.81,WSW,238,3.0,7.0,87,0.00,,,0.00,weatherlink.com 1.10,2013-06-24 06:37:00,